Location: Namasale
(1.5000°N, 32.6167°E)
Time: 19:45:38
(UTC+00:00)

IRIDIUM 104 - Pass Details

Date: 09 April 2020
Orbit: 776 x 779 km, 86.4° (Epoch: 27 May)

Event Time Altitude Azimuth Distance (km) Brightness Sun altitude
Rises 17:10:27 0° 4° (N) 3,243 7.6 -19.5°
Reaches altitude 10° 17:12:48 10° 6° (N) 2,317 6.8 -20.0°
Maximum altitude 17:17:58 72° 90° (E) 814 4.2 -21.3°
Drops below altitude 10° 17:23:09 10° 174° (S) 2,324 6.6 -22.6°
Sets 17:25:31 0° 176° (S) 3,253 7.4 -23.2°
